[Iaude] MPEC F46: 2024 FH1 [a=0.95,e=0.18,i=4.9,H=25.7]
    mpec at cfa.harvard.edu 
    mpec at cfa.harvard.edu
       
    Wed Mar 20 01:08:09 EDT 2024
    
    
  
M.P.E.C. 2024-F46                                Issued 2024 March 20, 05:06 UT
     The Minor Planet Electronic Circulars contain information on unusual
         minor planets, routine data on comets and natural satellites,
         and occasional editorial announcements.  They are published
    on behalf of Division F of the International Astronomical Union by the
          Minor Planet Center, Smithsonian Astrophysical Observatory,
                          Cambridge, MA 02138, U.S.A.
			  
             Prepared using the Tamkin Foundation Computer Network
                              MPC at CFA.HARVARD.EDU
            URL https://www.minorplanetcenter.net/    ISSN 1523-6714
                                    2024 FH1                                    
Observations:
     K24F01H* C2024 03 18.36529212 49 28.542+21 01 39.00         20.54wXEF046F52
     K24F01H  C2024 03 18.37827412 49 23.521+21 02 33.28         20.67wXEF046F52
     K24F01H  C2024 03 18.39130412 49 18.461+21 03 27.38         20.52wXEF046F52
     K24F01H  C2024 03 18.53596312 48 21.272+21 13 03.06         20.51GVEF046F51
     K24F01H  C2024 03 18.53678012 48 20.944+21 13 06.26         20.46GVEF046F51
     K24F01H KC2024 03 19.07687 12 45 23.98 +21 46 27.9          20.6 GVEF046204
     K24F01H KC2024 03 19.09931 12 45 15.81 +21 47 49.1                VEF046204
     K24F01H KC2024 03 19.26167712 44 28.12 +21 58 06.5          21.0 GVEF046H21
     K24F01H KC2024 03 19.26727212 44 26.04 +21 58 27.3                VEF046H21
     K24F01H KC2024 03 19.27286512 44 23.94 +21 58 47.5          21.0 GVEF046H21
     K24F01H 1C2024 03 19.48204112 43 15.912+22 12 09.11         20.67GVEF046T12
     K24F01H 1C2024 03 19.48371112 43 15.278+22 12 15.02         20.60GVEF046T12
     K24F01H KC2024 03 19.49534112 43 05.459+22 12 07.16         20.66GVEF046I52
     K24F01H KC2024 03 19.49668412 43 05.005+22 12 11.41         20.61GVEF046I52
     K24F01H KC2024 03 19.49803312 43 04.523+22 12 16.02         20.71GVEF046I52
     K24F01H KC2024 03 19.49938612 43 04.076+22 12 20.66         20.79GVEF046I52
     K24F01H KC2024 03 20.18267912 39 42.88 +22 51 26.9          21.2 GVEF046H21
     K24F01H KC2024 03 20.18827212 39 40.94 +22 51 46.3          21.3 GVEF046H21
     K24F01H KC2024 03 20.19526412 39 38.54 +22 52 10.1          20.7 GVEF046H21
Observer details:
204 Schiaparelli Observatory.  Observer L. Buzzi.  0.84-m f/3.5 reflector +
    CMO.
F51 Pan-STARRS 1, Haleakala.  Observers J. Herman, T. Lowe, P. Minguez, A.
    Schultz, I. Smith.  Measurers K. Chambers, T. de Boer, J. Fairlamb, H.
    Gao, M. Huber, C.-C. Lin, E. Magnier, Y. Ramanjooloo, R. Wainscoat, R.
    Weryk.  1.8-m Ritchey-Chretien + CCD.
F52 Pan-STARRS 2, Haleakala.  Observers J. Herman, T. Lowe, P. Minguez, A.
    Schultz, I. Smith.  Measurers K. Chambers, T. de Boer, J. Fairlamb, H.
    Gao, M. Huber, C.-C. Lin, E. Magnier, Y. Ramanjooloo, R. Wainscoat, R.
    Weryk.  1.8-m Ritchey-Chretien + CCD.
H21 Astronomical Research Observatory, Westfield.  Observer R. Holmes.
    Measurers T. Linder, R. Holmes, L. Horn.  0.76-m f/3.0 astrograph + CCD.
I52 Steward Observatory, Mt. Lemmon Station.  Observer R. A. Kowalski.
    Measurers T. Beuden, V. F. Carvajal, D. Fay, J. B. Fazekas, D. C. Fuls, A.
    R. Gibbs, A. D. Grauer, H. Groeller, J. K. Hogan, R. A. Kowalski, S. M.
    Larson, G. J. Leonard, D. Rankin, R. L. Seaman, F. C. Shelly, K. W.
    Wierzchos.  1.0-m prime focus + CCD.
T12 University of Hawaii 88-inch telescope, Maunakea.  Observer J. Fairlamb.
    Measurers R. Weryk, J. Fairlamb, Y. Ramanjooloo, R. Wainscoat.  2.24-m
    f/10.1 reflector + CCD.
Orbital elements:
2024 FH1                                                 Earth MOID = 0.0058 AU
Epoch 2024 Mar. 31.0 TT = JDT 2460400.5                 MPC                     
M 129.05997              (2000.0)            P               Q                  
n   1.05680864     Peri.  243.66164     +0.69386166     -0.71964916             
a   0.9545642      Node   162.32397     +0.68719422     +0.65105371             
e   0.1778444      Incl.    4.85758     +0.21522106     +0.24131754             
P   0.93           H   25.79          G   0.15           U   6                  
Residuals in seconds of arc
240318 F52  0.1+  0.0     240319 H21  0.2+  0.6+    240319 I52  0.1-  0.2-
240318 F52  0.0   0.0     240319 H21  0.2+  0.8+    240319 I52  0.2+  0.0
240318 F52  0.0   0.0     240319 H21  0.2-  0.5+    240320 H21  0.1-  0.1+
240318 F51  0.0   0.1-    240319 T12  0.0   0.0     240320 H21  0.2-  0.1+
240318 F51  0.1-  0.0     240319 T12  0.1-  0.0     240320 H21  0.2+  0.2-
240319 204  0.1-  0.2-    240319 I52  0.1-  0.1-
240319 204  0.2+  0.0     240319 I52  0.1+  0.3-
Ephemeris:
2024 FH1                 a,e,i = 0.95, 0.18, 5                   q = 0.7848
Date    TT    R. A. (2000) Decl.     Delta      r    Elong.  Phase     V
2024 02 19    17 20 20.4 -41 11 01   0.04804 0.9718    68.5   108.9    23.2
...
2024 03 05    14 33 07.4 -05 46 57   0.03929 1.0156   126.3    51.9    20.7
...
2024 03 13    13 24 03.3 +13 17 41   0.04878 1.0367   150.6    28.1    20.6
...
2024 03 19    12 45 51.9 +21 42 40   0.06097 1.0513   155.5    23.2    20.9
2024 03 20    12 40 34.9 +22 41 59   0.06330 1.0536   155.2    23.3    21.0
2024 03 21    12 35 34.9 +23 35 30   0.06569 1.0559   154.8    23.6    21.1
...
2024 03 27    12 10 58.5 +27 18 42   0.08131 1.0690   150.0    27.9    21.7
...
2024 04 04    11 49 48.9 +29 22 07   0.1047  1.0843   141.8    34.8    22.5
...
2024 04 19    11 34 29.6 +28 52 06   0.1536  1.1067   128.6    45.2    23.7
A. U. Tomatic                (C) Copyright 2024 MPC           M.P.E.C. 2024-F46
    
    
More information about the Iaude
mailing list